User: anonymous
Location: Unspecified
(0.0000°N, 0.0000°E)
Time: 20:02:19
(UTC+02:00)
Language:

deb Ariane - Orbit

View from above orbital plane
View from above orbital plane
View from above satellite
View from above satellite

Ground track
Ground track

The orbit data is extracted from the following two-line orbital elements,

1 25668U 92060E   14232.12491277  .00293306 -25389-6  17802-2 0  5655
2 25668 007.4129 151.3149 5534311 028.3324 031.4914 04.90060951249977
Epoch (UTC): 20 August 2014 02:59:52
Eccentricity: 0.5534311
inclination: 7.4129°
perigee height: 160 km
apogee height: 16365 km
right ascension of ascending node: 151.3149°
argument of perigee: 28.3324°
revolutions per day: 4.90060951
mean anomaly at epoch: 31.4914°
orbit number at epoch: 24997

The dashed part of the orbit path shows where the satellite is in the earth's shadow,  

DLR